#timestamp,LO_Frequency,Hit,StdDev 
1512262815.6,286046996.8,N
1512262835.5,286046991.8,N
1512262855.3,286046995.0,N
1512262875.1,286046991.9,N
1512262895.9,286046991.5,N
1512262915.7,286046988.4,Y
1512262935.5,286047001.1,P
1512262955.4,286046998.3,N
1512262975.2,286046997.9,N
1512262995.0,286046996.1,N
1512262995.9,286046996.1,N
1512263015.8,286046994.9,N
1512263035.6,286046994.8,N
1512263055.4,286046992.5,Y
1512263075.3,286046998.6,P
1512263095.1,286046994.3,P
1512263096.0,286046994.3,P
1512263115.8,286046988.9,Y
1512263135.7,286046996.1,P
1512263155.5,286046993.3,P
1512263175.3,286046991.0,P
1512263195.2,286046992.9,Y
1512263215.9,286046992.2,P
1512263235.7,286046990.6,P
1512263255.6,286046988.6,P
1512263275.4,286046991.1,Y
1512263295.2,286046998.1,P
1512263315.1,286046997.8,N
1512263316.0,286046997.8,N
1512263335.8,286046994.9,N
1512263355.6,286046999.6,N
1512263375.5,286046998.6,N
1512263395.3,286046999.5,N
1512263415.1,286046998.7,N
1512263435.8,286047000.8,N
1512263455.7,286047003.8,N
1512263475.5,286047006.0,N
1512263495.3,286047006.6,N
1512263515.2,286047005.7,N
1512263535.9,286047005.0,N
1512263555.7,286047004.2,N
1512263575.6,286047005.7,N
1512263595.4,286047006.5,N
1512263615.2,286047007.0,N
1512263635.1,286047005.9,N
1512263636.0,286047005.9,N
1512263655.8,286047003.2,N
1512263675.6,286047001.1,N
1512263695.5,286047000.0,N
1512263715.3,286047003.6,N
1512263735.1,286047003.0,N
1512263755.8,286047003.2,N
1512263775.7,286047007.0,N
1512263795.5,286047008.2,N
1512263815.3,286047006.2,N
1512263835.2,286047009.0,N
1512263855.9,286047011.4,Y
1512263875.7,286047012.3,P
1512263895.6,286047013.8,N
1512263915.4,286047011.2,N
1512263935.2,286047011.5,N
1512263955.1,286047013.1,Y
1512263956.0,286047013.1,P
1512263975.8,286046999.7,N
1512263995.6,286047000.3,N
1512264015.5,286046998.5,N
1512264035.3,286047000.7,N
1512264055.1,286047002.2,N
1512264075.9,286047003.8,N
1512264095.7,286047001.5,N
1512264115.5,286047003.8,N
1512264135.4,286047003.1,N
1512264155.2,286047005.9,N
1512264175.0,286047005.2,N
1512264175.9,286047005.2,N
1512264195.7,286047005.1,N
1512264215.6,286047009.7,N
1512264235.4,286047013.7,Y
1512264255.3,286047008.6,P
1512264275.1,286047004.9,N
1512264276.0,286047004.9,N
1512264295.8,286047004.7,N
1512264315.6,286047004.0,N
1512264335.5,286046999.8,N
1512264355.3,286046995.8,N
1512264375.1,286046992.3,N
1512264395.9,286046992.3,N
1512264415.7,286046997.5,N
1512264435.5,286047000.0,N
1512264455.4,286047003.9,N
1512264475.2,286047000.0,N
1512264495.0,286046999.3,N
1512264495.9,286046999.3,N
1512264515.8,286046996.7,N
1512264535.6,286047000.7,N
1512264555.4,286047003.3,N
1512264575.2,286047007.7,N
1512264595.1,286047007.1,N
1512264596.0,286047007.1,N
1512264615.8,286047004.9,N
1512264635.6,286047006.2,N
1512264655.5,286047006.4,N
1512264675.3,286047004.5,N
1512264695.1,286047006.4,N
1512264715.9,286047004.7,N
1512264735.7,286047004.2,N
1512264755.5,286046997.4,N
1512264775.4,286046993.9,N
1512264795.2,286046988.5,N
1512264815.0,286046983.9,Y
1512264815.9,286046983.9,P
1512264835.8,286046981.1,N
1512264855.6,286046979.4,N
1512264875.4,286046982.6,N
1512264895.3,286046982.5,N
1512264915.1,286046982.8,N
1512264916.0,286046982.8,N
1512264935.8,286046982.6,N
1512264955.7,286046983.4,N
1512264975.5,286046979.4,Y
1512264995.3,286046996.8,P
1512265015.2,286046995.5,N
1512265035.9,286046997.3,N
1512265055.7,286047001.2,N
1512265075.6,286047000.4,N
1512265095.4,286047002.1,N
1512265115.2,286047001.4,N
1512265135.0,286047004.4,N
1512265135.9,286047004.4,N
1512265155.8,286047007.1,N
1512265175.6,286047009.2,N
1512265195.4,286047011.1,N
1512265215.3,286047014.6,N
1512265235.1,286047013.6,N
1512265255.8,286047012.1,N
1512265275.7,286047012.4,N
1512265295.5,286047011.5,N
1512265315.3,286047013.9,N
1512265335.2,286047014.1,N
1512265355.9,286047020.2,N
1512265375.7,286047021.2,N
1512265395.5,286047021.2,N
1512265415.4,286047021.8,N
1512265435.2,286047024.9,N
1512265455.0,286047027.4,N
1512265455.9,286047027.4,N
1512265475.8,286047027.8,N
1512265495.6,286047029.9,N
1512265515.4,286047030.7,N
1512265535.3,286047029.1,N
1512265555.1,286047030.3,N
1512265556.0,286047030.3,N
1512265575.8,286047028.6,N
1512265595.7,286047026.9,N
1512265615.5,286047027.9,N
1512265635.3,286047025.3,N
1512265655.2,286047024.0,N
1512265675.9,286047024.3,N
1512265695.7,286047027.9,Y
1512265715.6,286047005.8,P
1512265735.4,286047005.4,N
1512265755.2,286047005.1,N
1512265775.0,286047003.2,N
1512265776.0,286047003.2,N
1512265795.8,286047003.2,N
1512265815.6,286047004.0,N
1512265835.4,286047003.2,N
1512265855.3,286047004.4,N
1512265875.1,286047001.6,N
1512265895.8,286046998.2,N
1512265915.7,286047000.8,N
1512265935.5,286047005.2,N
1512265955.3,286047003.1,N
1512265975.2,286047004.5,N
1512265995.9,286047001.8,N
1512266015.7,286047002.4,N
1512266035.6,286046999.9,N
1512266055.4,286047000.8,N
1512266075.2,286046999.0,N
1512266095.0,286047000.7,N
1512266096.0,286047000.7,N
1512266115.8,286047000.7,N
1512266135.6,286047001.5,N
1512266155.4,286047002.7,N
1512266175.3,286046996.7,N
1512266195.1,286046995.1,N
1512266215.8,286046990.1,N
1512266235.7,286046991.0,N
1512266255.5,286046991.2,N
1512266275.3,286046988.5,N
1512266295.2,286046989.9,N
1512266315.9,286046989.0,N
1512266335.7,286046991.0,N
1512266355.5,286046987.4,N
1512266375.4,286046986.3,N
1512266395.2,286046988.2,N
